Regional Weather Roundup
Issued by NWS Upton, NY

Current Version | Previous Version | Graphics & Text | Print | Product List | Glossary Off
Versions: 1 2 3 4 5 6 7 8 9 10 11 12 13 14 15 16 17 18 19 20 21 22 23 24 25 26 27 28 29 30 31 32 33 34 35 36 37 38 39 40 41 42 43 44 45 46 47 48 49 50

000
ASUS41 KOKX 262205
RWROKX

REGIONAL WEATHER ROUNDUP
NATIONAL WEATHER SERVICE NEW YORK NY
500 PM EST THU FEB 26 2015

NOTE: "FAIR" INDICATES FEW OR NO CLOUDS BELOW 12,000 FEET WITH NO
SIGNIFICANT WEATHER AND/OR OBSTRUCTIONS TO VISIBILITY.

NYZ071-072-176-178-NJZ106-104-262300-
NEW YORK CITY METRO AREA


CITY           SKY/WX    TMP DP  RH WIND       PRES   REMARKS
CENTRAL PARK   CLOUDY    26  12  55 VRB7      30.02R WCI  18
LAGUARDIA APRT CLOUDY    26  14  60 N10       30.00R WCI  16
KENNEDY INTL   FLURRIES  28  15  58 N7        30.01R WCI  21
NEWARK/LIBERTY CLOUDY    27  17  66 N7        30.01R WCI  19
BRNX BOT. GARD   N/A    N/A N/A N/A NW9       30.00F
TETERBORO      CLOUDY    26  13  57 N8        30.00R WCI  18
$$

NYZ177-179-078>081-262300-
LONG ISLAND NEW YORK

CITY           SKY/WX    TMP DP  RH WIND       PRES   REMARKS
FARMINGDALE    CLOUDY    26  15  63 N8        29.99R WCI  18
ISLIP          CLOUDY    25  14  63 N9        29.97R WCI  15
SHIRLEY        CLOUDY    25  15  66 N12       29.98R WCI  14
WESTHAMPTON    CLOUDY    26  15  63 N10       29.97S WCI  16
MONTAUK POINT    N/A     28  17  63 N12       29.95S WCI  18
$$

NYZ052-065-067-262300-
HUDSON VALLEY

CITY           SKY/WX    TMP DP  RH WIND       PRES   REMARKS
WHITE PLAINS   MOCLDY    24  12  60 NW10      29.96R WCI  14
NEWBURGH       NOT AVBL
MONTGOMERY     CLOUDY    20  11  68 NE10      30.00R WCI   9
POUGHKEEPSIE   CLOUDY    21   9  59 N8        30.03R WCI  11
ALBANY         CLOUDY    18  -4  37 NE7       30.05R WCI   9
$$

NJZ001-105-106-008-010-013-015-019>022-104-262300-
NEW JERSEY

CITY           SKY/WX    TMP DP  RH WIND       PRES   REMARKS
NEWARK/LIBERTY CLOUDY    27  17  66 N7        30.01R WCI  19
TETERBORO      CLOUDY    26  13  57 N8        30.00R WCI  18
CALDWELL       CLOUDY    24  11  57 N6        30.02R WCI  17
MORRISTOWN     CLOUDY    27  14  59 N8        30.01R WCI  18
SOMERVILLE     CLOUDY    27  13  55 MISG      29.99R
SUSSEX         CLOUDY    23  11  60 E3        29.98R
ANDOVER          N/A     23  12  62 CALM      29.98R
TRENTON        CLOUDY    28  15  58 N6        30.00R WCI  22
MILLVILLE      CLOUDY    31  14  49 N8        29.98R WCI  23
ATLANTIC CITY  CLOUDY    31  14  49 N9        29.97R WCI  23
WRIGHTSTOWN    CLOUDY    28  19  67 N12       29.98R WCI  18
TOMS RIVER     CLOUDY    28  18  64 N10       30.00R WCI  19
BELMAR         CLOUDY    27  14  59 N8        29.99R WCI  18
$$

PAZ047>061-062-071-262300-
EASTERN PENNSYLVANIA

CITY           SKY/WX    TMP DP  RH WIND       PRES   REMARKS
PHILADELPHIA   CLOUDY    31  17  56 N10       30.01R WCI  22
ALLENTOWN      CLOUDY    25  15  66 CALM      29.99R
SCRANTON       CLOUDY    21  11  65 N10       29.98R WCI  10
$$

CTZ002-004>006-009-010-012-RIZ004-006-007-MAZ004-011-015-262300-
SOUTHERN NEW ENGLAND
 IN CT

CITY           SKY/WX    TMP DP  RH WIND       PRES   REMARKS
BRADLEY INTL   CLOUDY    24   9  52 N7        29.99R WCI  16
HARTFORD       CLOUDY    23  11  60 N9        30.01R WCI  13
DANBURY        CLOUDY    23  10  57 NW5       29.97R WCI  17
WTRBRY/OXFORD  CLOUDY    21   7  53 NE9       29.95R WCI  11
BRIDGEPORT     CLOUDY    26  14  60 N9        29.99R WCI  17
MERIDEN        CLOUDY    24  12  60 N6        30.00R WCI  17
NEW HAVEN      CLOUDY    24  13  62 N12       29.98R WCI  13
CHESTER        MOCLDY    25  16  68 N9        29.96R WCI  15
GROTON         CLOUDY    25  15  66 N15       29.96R WCI  13
WILLIMANTIC    CLOUDY    24  13  62 NE9       29.98R WCI  14

 IN RI

CITY           SKY/WX    TMP DP  RH WIND       PRES   REMARKS
PROVIDENCE     CLOUDY    23  15  71 N16       29.99R WCI  10
BLOCK ISLAND   CLOUDY    25  18  74 N15G22    29.92S WCI  12
WESTERLY       CLOUDY    25  15  66 N10       29.96R WCI  15

 IN MA

CITY           SKY/WX    TMP DP  RH WIND       PRES   REMARKS
BOSTON         CLOUDY    21  11  65 N8        30.01R WCI  11
WORCESTER      CLOUDY    20  10  65 E5        29.92S WCI  13
WESTFIELD      CLOUDY    23   4  44 NE3       29.98R
PROVINCETOWN   PTCLDY    27  19  74 N16G23    29.97R WCI  14
NANTUCKET      CLOUDY    30  24  78 NE20      29.89R WCI  17
$$

ANZ330-335-338-340-345-350-353-355-262300-
COASTAL MARINE OBSERVATIONS


STATION/POSITION TIME  SKY/WX   TEMP    WIND        PRES    VSBY  WAVE
                                AIR SEA DIR/SP/G                  HT/PER
                 (UTC)          (F)     (DEG/KT/KT) (MB)    (MI)  (FT/S)
NY HARB ENTRANCE 2200            26 38  360/ 14/ 17 1015.6          4/ 6
4S FIRE IS       NOT AVBL
20S FIRE ISLAND  2100               36              1013.9          5/ 6
23SW MTP         2200                                 N/A           6/ 6
HUDSON CANYON    NOT AVBL
EXECUTION ROCKS  NOT AVBL
WESTERN LI SOUND NOT AVBL
CENTRAL LI SOUND NOT AVBL
EASTERN LI SOUND NOT AVBL
ROBBINS REEF     2200            26     360/  7/ 10 1014.7
$$


>>>>>>>>>>>>>>>>>>>>>>>>>>>> KEY <<<<<<<<<<<<<<<<<<<<<<<<<<<
>                                                          <
>     SKY/WX - SKY CONDITION/PRESENT WEATHER               <
>     TMP    - TEMPERATURE IN FAHRENHEIT                   <
>     DP     - DEWPOINT IN FAHRENHEIT                      <
>     RH     - RELATIVE HUMIDITY IN PERCENT                <
>     WIND   - DIRECTION AND SPEED IN MPH                  <
>     PRES   - MEAN SEA LEVEL PRESSURE IN INCHES OF HG     <
>     WCI    - WIND CHILL INDEX                            <
>     VSB    - VISIBILITY IN MILES                         <
>     HX     - HEAT INDEX                                  <
>     TC     - TEMPERATURE IN CELSIUS                      <
>     VRB    - VARIABLE WIND DIRECTION                     <
>                                                          <
>>>>>>>>>>>>>>>>>>>>>>>>>>>> KEY <<<<<<<<<<<<<<<<<<<<<<<<<<<





USA.gov is the U.S. government's official web portal to all federal, state and local government web resources and services.